time_stamp(utc),avg(mph),gust(mph),direction(deg),12m_air_temp(f),sonic_u(cm/s),sonic_v(cm/s),sonic_w(cm/s),pressure,2m_air_temp(f),pyranometer(W/m^2)
"2017-11-08 00:02:42+00",19.7,24.7,,43.6,-178,826,44,1018.8,43.4,0
"2017-11-08 00:07:42+00",23.1,25.1,,43.2,-177,1141,-57,1018.44,43.1,0
"2017-11-08 00:12:42+00",20.0,25.0,,43,-87,980,-8,1018.46,42.8,0
"2017-11-08 00:17:42+00",22.1,26.1,,43,13,981,25,1018.26,42.8,0
"2017-11-08 00:22:42+00",21.0,25.0,,43.4,-50,1051,-46,1018.59,43,0
"2017-11-08 00:27:42+00",22.7,27.7,,43.1,-90,955,27,1018.85,42.9,0
"2017-11-08 00:32:42+00",23.4,27.4,,43.1,-35,1143,-64,1018.77,42.8,0
"2017-11-08 00:37:42+00",17.3,19.3,,43.3,103,758,5,1018.58,42.9,0
"2017-11-08 00:42:42+00",21.4,25.4,,43.2,-66,997,14,1018.52,42.9,0
"2017-11-08 00:47:42+00",19.6,24.6,,43.1,23,890,28,1018.4,42.8,0
"2017-11-08 00:52:42+00",22.5,25.5,,42.9,104,972,26,1018.27,42.6,0
"2017-11-08 00:57:42+00",24.6,27.6,,42.9,-209,1121,136,1018.15,42.5,0
"2017-11-08 01:02:42+00",21.8,27.8,,43,280,1055,-154,1018.14,42.6,0
"2017-11-08 01:07:42+00",22.2,25.2,,42.9,-10,1271,-181,1018.15,42.5,0
"2017-11-08 01:12:42+00",18.2,23.2,,43,226,749,11,1018.25,42.7,0
"2017-11-08 01:17:42+00",16.8,21.8,,43.2,269,684,4,1018.14,42.7,0
"2017-11-08 01:22:42+00",20.6,25.6,,43.2,163,874,40,1018.07,42.8,0
"2017-11-08 01:27:42+00",20.7,28.7,,43.2,134,916,20,1018.03,42.8,0
"2017-11-08 01:32:42+00",20.9,22.9,,43.3,66,1015,-52,1018.15,42.9,0
"2017-11-08 01:37:42+00",20.5,24.5,,43.5,44,884,30,1018.27,43.1,0
"2017-11-08 01:42:42+00",20.4,23.4,,43.3,103,886,25,1018.25,42.9,0
"2017-11-08 01:47:42+00",19.4,26.4,,43.3,181,829,25,1018.33,42.9,0
"2017-11-08 01:52:42+00",20.3,23.3,,43.6,256,935,-67,1018.15,43,0
"2017-11-08 01:57:42+00",20.4,27.4,,43.6,172,770,96,1018.11,43,0
"2017-11-08 02:02:42+00",20.3,25.3,,43.5,143,920,-2,1018.18,43.1,0
"2017-11-08 02:07:42+00",21.4,25.4,,43.6,209,921,2,1018.1,43.2,0
"2017-11-08 02:12:42+00",22.4,27.4,,43.6,39,1040,-16,1018.17,43.2,0
"2017-11-08 02:17:42+00",20.4,24.4,,43.8,86,922,18,1018.21,43.4,0
"2017-11-08 02:22:42+00",17.0,19.0,,43.4,12,748,15,1018.26,43.4,0
"2017-11-08 02:27:42+00",18.6,21.6,,43.1,124,801,19,1018.2,42.9,0
"2017-11-08 02:32:42+00",20.4,23.4,,43.1,161,839,32,1018.37,42.9,0
"2017-11-08 02:37:42+00",22.7,27.7,,43.4,68,1059,-36,1018.44,43,0
"2017-11-08 02:42:42+00",25.9,29.9,,43.6,2,1107,66,1018.27,43.2,0
"2017-11-08 02:47:42+00",22.7,25.7,,43.6,-288,1254,-66,1018.29,43.2,0
"2017-11-08 02:52:42+00",22.6,26.6,,43.4,79,995,38,1018.34,43,0
"2017-11-08 02:57:42+00",21.2,25.2,,43.4,120,932,-3,1018.24,43,0
"2017-11-08 03:02:42+00",19.6,23.6,,43.6,43,885,25,1018.39,43.2,0
"2017-11-08 03:07:42+00",21.5,25.5,,43.2,27,964,-5,1018.52,42.9,0
"2017-11-08 03:12:42+00",20.2,24.2,,43.2,47,905,24,1018.46,42.9,0
"2017-11-08 03:17:42+00",22.0,25.0,,43.4,72,979,40,1018.29,43,0
"2017-11-08 03:22:42+00",20.9,23.9,,43.6,24,965,-11,1018.52,43.1,0
"2017-11-08 03:27:42+00",19.4,23.4,,43.4,47,877,20,1018.41,43,0
"2017-11-08 03:32:42+00",20.7,25.7,,43.4,176,845,9,1018.43,42.9,0
"2017-11-08 03:37:42+00",21.9,25.9,,43.5,129,953,7,1018.39,43,0
"2017-11-08 03:42:42+00",22.6,26.6,,43.4,75,965,78,1018.3,43,0
"2017-11-08 03:47:42+00",22.7,26.7,,43.6,229,1016,-62,1018.06,43.1,0
"2017-11-08 03:52:42+00",17.3,20.3,,43.7,152,723,39,1018.29,43.2,0
"2017-11-08 03:57:42+00",23.5,28.5,,43.8,-13,1041,77,1018.2,43.3,0
"2017-11-08 04:02:42+00",19.6,24.6,,44.1,109,859,14,1018.36,43.6,0
"2017-11-08 04:07:42+00",17.3,20.3,,43.9,3,803,26,1018.37,43.7,0
"2017-11-08 04:12:42+00",20.0,23.0,,43.7,53,872,34,1018.49,43.4,0
"2017-11-08 04:17:42+00",20.8,26.8,,43.9,62,887,58,1018.49,43.5,0
"2017-11-08 04:22:42+00",23.5,27.5,,44.1,140,1012,30,1018.39,43.6,0
"2017-11-08 04:27:42+00",22.2,25.2,,44.1,146,927,51,1018.26,43.6,0
"2017-11-08 04:32:42+00",21.3,25.3,,44.3,334,828,41,1018.27,43.9,0
"2017-11-08 04:37:42+00",21.5,28.5,,44.4,-6,854,148,1018.35,43.9,0
"2017-11-08 04:42:42+00",24.3,26.3,,44.3,146,1017,39,1018.3,43.9,0
"2017-11-08 04:47:42+00",21.5,24.5,,44.4,148,878,52,1018.43,43.9,0
"2017-11-08 04:52:42+00",22.4,25.4,,44.4,197,944,5,1018.56,44,0
"2017-11-08 04:57:42+00",19.7,22.7,,44.5,203,810,32,1018.45,44.1,0
"2017-11-08 05:02:42+00",21.6,24.6,,44.4,128,894,58,1018.53,44,0
"2017-11-08 05:07:42+00",19.5,22.5,,44.3,191,839,27,1018.39,44,0
"2017-11-08 05:12:42+00",22.4,26.4,,44.3,115,1025,-20,1018.33,43.9,0
"2017-11-08 05:17:42+00",19.3,23.3,,44.3,131,842,43,1018.31,44,0
"2017-11-08 05:22:42+00",22.1,25.1,,44.3,46,958,75,1018.12,44,0
"2017-11-08 05:27:42+00",21.0,26.0,,44.4,117,875,66,1018.04,44.1,0
"2017-11-08 05:32:42+00",20.9,23.9,,44.3,165,890,7,1018.23,44,0
"2017-11-08 05:37:42+00",22.8,26.8,,44.2,149,977,33,1017.96,43.9,0
"2017-11-08 05:42:42+00",17.5,22.5,,44.4,201,746,20,1017.96,44.1,0
"2017-11-08 05:47:42+00",20.3,27.3,,44.5,240,951,82,1017.93,44.2,0
"2017-11-08 05:52:42+00",18.3,22.3,,44.5,236,824,28,1018.05,44.2,0
"2017-11-08 05:57:42+00",22.2,25.2,,44.5,84,1279,161,1017.99,44.2,0
"2017-11-08 06:02:42+00",20.5,25.5,,44.6,208,1066,183,1018.07,44.3,0
"2017-11-08 06:07:42+00",21.1,24.1,,44.6,156,1023,132,1018.1,44.3,0
"2017-11-08 06:12:42+00",22.0,25.0,,44.6,278,1108,120,1018.24,44.3,0
"2017-11-08 06:17:42+00",22.3,25.3,,44.6,279,1385,281,1018.31,44.3,0
"2017-11-08 06:22:42+00",17.8,22.8,,44.6,173,790,31,1018.43,44.2,0
"2017-11-08 06:27:42+00",17.8,24.8,,44.6,273,909,122,1018.28,44.2,0
"2017-11-08 06:32:42+00",16.7,20.7,,44.7,285,664,19,1018.29,44.4,0
"2017-11-08 06:37:42+00",18.2,23.2,,44.8,271,765,27,1018.31,44.4,0
"2017-11-08 06:42:42+00",18.5,24.5,,44.8,269,824,39,1018.34,44.4,0
"2017-11-08 06:47:42+00",20.7,24.7,,44.8,380,985,127,1018.25,44.4,0
"2017-11-08 06:52:42+00",18.0,21.0,,44.8,308,718,6,1018.22,44.5,0
"2017-11-08 06:57:42+00",16.1,21.1,,44.9,220,665,12,1018.17,44.5,0
"2017-11-08 07:02:42+00",19.7,23.7,,44.8,285,892,88,1018.12,44.6,0
"2017-11-08 07:07:42+00",16.8,19.8,,45,200,686,7,1018.08,44.6,0
"2017-11-08 07:12:42+00",18.8,21.8,,44.9,144,807,18,1018.17,44.6,0
"2017-11-08 07:17:42+00",17.0,20.0,,44.8,148,714,22,1018.47,44.5,0
"2017-11-08 07:22:42+00",16.1,19.1,,44.7,98,702,13,1018.61,44.4,0
"2017-11-08 07:27:42+00",16.4,18.4,,44.6,64,717,19,1018.57,44.3,0
"2017-11-08 07:32:42+00",17.4,20.4,,44.5,152,733,3,1018.39,44.2,0
"2017-11-08 07:37:42+00",17.0,19.0,,44.5,148,709,17,1018.36,44.2,0
"2017-11-08 07:42:42+00",15.6,18.6,,44.6,65,673,21,1018.58,44.2,0
"2017-11-08 07:47:42+00",17.4,20.4,,44.6,132,752,5,1018.58,44.2,0
"2017-11-08 07:52:42+00",17.4,20.4,,44.5,114,732,11,1018.53,44.2,0
"2017-11-08 07:57:42+00",17.5,20.5,,44.5,71,761,17,1018.5,44.2,0
"2017-11-08 08:02:42+00",18.7,22.7,,44.3,52,825,32,1018.63,44.1,0
"2017-11-08 08:07:42+00",19.0,24.0,,44.1,61,837,20,1018.59,43.9,0
"2017-11-08 08:12:42+00",20.1,24.1,,43.9,58,886,13,1018.61,43.8,0
"2017-11-08 08:17:42+00",18.5,20.5,,43.9,89,804,33,1018.59,43.7,0
"2017-11-08 08:22:42+00",16.5,21.5,,43.9,94,720,32,1018.6,43.6,0
"2017-11-08 08:27:42+00",19.8,22.8,,43.7,189,942,84,1018.55,43.6,0
"2017-11-08 08:32:42+00",20.1,23.1,,43.7,175,990,102,1018.69,43.4,0
"2017-11-08 08:37:42+00",16.9,20.9,,43.6,114,790,48,1018.76,43.4,0
"2017-11-08 08:42:42+00",20.6,25.6,,43.7,57,969,73,1018.86,43.5,0
"2017-11-08 08:47:42+00",18.6,22.6,,43.6,31,809,33,1018.91,43.4,0
"2017-11-08 08:52:42+00",18.4,21.4,,43.5,31,793,44,1019.1,43.3,0
"2017-11-08 08:57:42+00",21.7,24.7,,43.4,80,923,18,1019.01,43.2,0
"2017-11-08 09:02:42+00",20.3,22.3,,43.3,90,870,7,1019.14,43.2,0
"2017-11-08 09:07:42+00",20.8,22.8,,43.2,33,912,20,1019.26,43,0
"2017-11-08 09:12:42+00",22.3,24.3,,43.1,-2,969,35,1019.36,42.9,0
"2017-11-08 09:17:42+00",20.2,23.2,,43,5,971,-32,1019.24,42.8,0
"2017-11-08 09:22:42+00",21.3,24.3,,43.1,5,934,18,1019.38,42.8,0
"2017-11-08 09:27:42+00",16.7,19.7,,43.2,53,720,38,1019.41,42.9,0
"2017-11-08 09:32:42+00",20.5,25.5,,43.1,-145,917,18,1019.58,42.9,0
"2017-11-08 09:37:42+00",19.9,23.9,,42.9,14,876,28,1019.66,42.8,0
"2017-11-08 09:42:42+00",19.1,22.1,,42.9,40,816,27,1019.73,42.7,0
"2017-11-08 09:47:42+00",18.8,22.8,,42.9,-5,827,17,1019.7,42.7,0
"2017-11-08 09:52:42+00",19.7,23.7,,42.9,63,852,31,1019.77,42.7,0
"2017-11-08 09:57:42+00",17.0,20.0,,42.9,-12,752,38,1019.76,42.7,0
"2017-11-08 10:02:42+00",18.7,22.7,,42.8,15,870,14,1019.89,42.6,0
"2017-11-08 10:07:42+00",20.3,24.3,,42.7,36,885,18,1019.8,42.5,0
"2017-11-08 10:12:42+00",18.5,22.5,,42.8,69,813,19,1019.87,42.5,0
"2017-11-08 10:17:42+00",18.6,21.6,,42.8,49,776,19,1019.91,42.6,0
"2017-11-08 10:22:42+00",22.9,25.9,,42.7,-4,1026,-11,1020.04,42.5,0
"2017-11-08 10:27:42+00",21.8,25.8,,42.7,12,954,23,1020.19,42.5,0
"2017-11-08 10:32:42+00",19.1,21.1,,42.6,53,821,19,1020.29,42.4,0
"2017-11-08 10:37:42+00",22.2,24.2,,42.6,125,891,46,1020.36,42.4,0
"2017-11-08 10:42:42+00",20.6,24.6,,42.6,33,898,38,1020.49,42.4,0
"2017-11-08 10:47:42+00",21.9,25.9,,42.5,-175,1227,-157,1020.46,42.3,0
"2017-11-08 10:52:42+00",20.4,23.4,,42.5,37,899,28,1020.48,42.3,0
"2017-11-08 10:57:42+00",21.1,25.1,,42.4,-75,914,73,1020.5,42.3,0
"2017-11-08 11:02:42+00",23.8,25.8,,42.4,-242,1228,-29,1020.62,42.1,0
"2017-11-08 11:07:42+00",20.8,24.8,,42.3,-177,977,72,1020.68,42.1,0
"2017-11-08 11:12:42+00",24.8,28.8,,42.3,-478,1883,-427,1020.67,42.1,0
"2017-11-08 11:17:42+00",21.3,24.3,,42.4,-21,1004,10,1020.84,42.1,0
"2017-11-08 11:22:42+00",22.1,27.1,,42.4,125,908,64,1020.81,42.1,0
"2017-11-08 11:27:42+00",22.1,27.1,,42.4,20,1022,39,1020.99,42.1,0
"2017-11-08 11:32:42+00",19.4,22.4,,42.7,171,792,46,1021.19,42.2,0
"2017-11-08 11:37:42+00",21.8,26.8,,42.7,44,916,107,1021.23,42.3,0
"2017-11-08 11:42:42+00",22.2,26.2,,42.7,86,950,56,1021.27,42.3,0
"2017-11-08 11:47:42+00",19.4,22.4,,42.7,160,802,23,1021.3,42.4,0
"2017-11-08 11:52:42+00",22.9,27.9,,42.9,-29,949,139,1021.32,42.4,0
"2017-11-08 11:57:42+00",20.7,25.7,,43,180,820,40,1021.36,42.5,0
"2017-11-08 12:02:42+00",18.7,23.7,,43.2,252,701,54,1021.46,42.6,0
"2017-11-08 12:07:42+00",20.0,28.0,,43.2,575,248,314,1021.37,42.8,0
"2017-11-08 12:12:42+00",19.3,24.3,,43.3,420,593,109,1021.43,42.7,0
"2017-11-08 12:17:42+00",18.8,22.8,,43.3,217,768,16,1021.47,42.8,0
"2017-11-08 12:22:42+00",18.4,22.4,,43.4,217,752,-1,1021.53,42.9,0
"2017-11-08 12:27:42+00",19.3,22.3,,43.3,196,793,10,1021.53,42.9,0
"2017-11-08 12:32:42+00",18.8,21.8,,43.4,273,751,5,1021.62,43,0
"2017-11-08 12:37:42+00",20.6,24.6,,43.5,224,850,16,1021.78,43,0
"2017-11-08 12:42:42+00",17.4,22.4,,43.6,144,729,7,1022,43.2,0
"2017-11-08 12:47:42+00",19.5,22.5,,43.7,200,810,-4,1021.93,43.3,0
"2017-11-08 12:52:42+00",18.8,21.8,,43.7,193,766,-3,1022.07,43.3,0.2
"2017-11-08 12:57:42+00",19.1,22.1,,43.5,109,823,-1,1022.14,43.3,0.4
"2017-11-08 13:02:42+00",17.6,19.6,,43.4,120,755,3,1022.1,43.2,0
"2017-11-08 13:07:42+00",18.8,21.8,,43.4,179,780,-4,1022.13,43.2,0
"2017-11-08 13:12:42+00",15.6,19.6,,43.5,93,665,33,1022.27,43.3,0
"2017-11-08 13:17:42+00",17.1,19.1,,43.5,215,695,24,1022.11,43.3,0
"2017-11-08 13:22:42+00",17.2,21.2,,43.6,170,710,0,1022.08,43.4,0
"2017-11-08 13:27:42+00",17.5,20.5,,43.7,203,709,-1,1022.32,43.5,0
"2017-11-08 13:32:42+00",18.6,22.6,,43.8,142,788,10,1022.46,43.6,1.5
"2017-11-08 13:37:42+00",18.4,23.4,,43.8,170,781,4,1022.5,43.7,1.7
"2017-11-08 13:42:42+00",22.6,25.6,,43.9,182,962,-6,1022.6,43.7,8.9
"2017-11-08 13:47:42+00",17.7,20.7,,44,190,736,-5,1022.6,43.9,17.8
"2017-11-08 13:52:42+00",14.3,17.3,,44.2,109,604,30,1022.67,44.1,14.4
"2017-11-08 13:57:42+00",17.4,20.4,,44.5,232,691,3,1022.52,44.3,16.6
"2017-11-08 14:02:42+00",14.5,18.5,,44.6,159,575,31,1022.64,44.6,28.3
"2017-11-08 14:07:42+00",18.5,21.5,,44.7,208,763,-5,1022.52,44.7,26.2
"2017-11-08 14:12:42+00",18.9,21.9,,44.8,202,771,6,1022.58,44.8,19.5
"2017-11-08 14:17:42+00",17.7,20.7,,44.8,213,714,-5,1022.6,44.9,32
"2017-11-08 14:22:42+00",17.4,21.4,,44.9,159,719,-8,1022.49,45,53.7
"2017-11-08 14:27:42+00",18.0,21.0,,45.1,183,749,-14,1022.44,45.3,61.2
"2017-11-08 14:32:42+00",19.9,22.9,,45.1,211,816,-4,1022.52,45.4,34.3
"2017-11-08 14:37:42+00",18.6,21.6,,45.1,149,790,-8,1022.59,45.3,31.1
"2017-11-08 14:42:42+00",18.6,20.6,,45,132,800,4,1022.63,45.2,49.9
"2017-11-08 14:47:42+00",17.9,21.9,,45.2,173,744,13,1022.54,45.5,54.1
"2017-11-08 14:52:42+00",15.6,18.6,,45.5,163,639,-1,1022.5,45.9,112.5
"2017-11-08 14:57:42+00",19.7,23.7,,45.5,283,770,-6,1022.43,46.1,72.6
"2017-11-08 15:02:42+00",19.6,22.6,,45.5,227,791,-1,1022.35,46,36.8
"2017-11-08 15:07:42+00",18.1,21.1,,45.4,220,743,0,1022.34,45.8,39.4
"2017-11-08 15:12:42+00",21.2,24.2,,45.3,212,885,-6,1022.19,45.7,34
"2017-11-08 15:17:42+00",17.9,21.9,,45.5,189,742,11,1022.29,45.9,31.6
"2017-11-08 15:22:42+00",19.7,22.7,,45.4,164,840,8,1022.38,45.7,18.5
"2017-11-08 15:27:42+00",20.6,24.6,,45.2,157,878,12,1022.48,45.6,23.6
"2017-11-08 15:32:42+00",18.9,20.9,,45.4,116,814,18,1022.52,45.7,17.6
"2017-11-08 15:37:42+00",22.7,24.7,,45.1,146,986,12,1022.55,45.6,15.5
"2017-11-08 15:42:42+00",17.7,20.7,,45.2,114,758,11,1022.61,45.6,19.4
"2017-11-08 15:47:42+00",19.1,21.1,,45.1,132,816,8,1022.46,45.5,15.2
"2017-11-08 15:52:42+00",17.3,19.3,,45.2,151,714,12,1022.53,45.5,14.4
"2017-11-08 15:57:42+00",18.8,21.8,,45.2,134,794,8,1022.42,45.5,5.9
"2017-11-08 16:02:42+00",17.8,20.8,,45.2,162,741,13,1022.43,45.5,11.4
"2017-11-08 16:07:42+00",19.8,20.8,,45.2,98,861,10,1022.26,45.5,10.6
"2017-11-08 16:12:42+00",19.4,20.4,,45.2,155,819,2,1022.34,45.5,6.1
"2017-11-08 16:17:42+00",19.1,21.1,,45.2,111,828,19,1022.33,45.6,7.7
"2017-11-08 16:22:42+00",19.7,21.7,,45.4,61,862,17,1022.41,45.7,7.9
"2017-11-08 16:27:42+00",17.5,19.5,,45.4,137,753,5,1022.3,45.7,3.4
"2017-11-08 16:32:42+00",16.3,17.3,,45.6,117,695,41,1022.32,45.7,3.8
"2017-11-08 16:37:42+00",16.9,18.9,,45.5,136,713,13,1022.3,45.7,9.6
"2017-11-08 16:42:42+00",18.4,23.4,,45.6,137,775,15,1022.24,45.8,5.2
"2017-11-08 16:47:42+00",17.3,20.3,,45.6,89,759,39,1022.13,45.8,0.6
"2017-11-08 16:52:42+00",18.1,20.1,,45.5,119,772,9,1022.22,45.8,0
"2017-11-08 16:57:42+00",16.6,19.6,,45.7,141,704,61,1022.13,45.9,1
"2017-11-08 17:02:42+00",14.8,16.8,,45.7,177,599,26,1022.17,45.8,1.8
"2017-11-08 17:07:42+00",17.6,20.6,,45.7,198,727,-5,1022.04,45.9,9.3
"2017-11-08 17:12:42+00",18.3,20.3,,45.6,71,800,19,1022.12,45.9,11.4
"2017-11-08 17:17:42+00",18.5,20.5,,45.7,115,802,10,1022.12,46,22.7
"2017-11-08 17:22:42+00",18.2,20.2,,45.9,86,792,14,1022.19,46.2,18.9
"2017-11-08 17:27:42+00",16.0,19.0,,45.8,130,680,5,1022.19,46.2,24.9
"2017-11-08 17:32:42+00",17.8,19.8,,46.1,82,777,27,1022.14,46.4,7.4
"2017-11-08 17:37:42+00",15.2,19.2,,46.1,43,669,20,1022.08,46.4,10.3
"2017-11-08 17:42:42+00",17.7,19.7,,46.3,22,772,27,1021.94,46.5,26.7
"2017-11-08 17:47:42+00",17.7,19.7,,46.3,24,772,18,1021.98,46.7,40.1
"2017-11-08 17:52:42+00",18.4,21.4,,46.3,44,801,11,1021.93,46.9,32.2
"2017-11-08 17:57:42+00",17.6,19.6,,46.5,-25,779,28,1021.91,46.9,28
"2017-11-08 18:02:42+00",16.4,19.4,,46.5,0,725,40,1021.96,47.1,33.3
"2017-11-08 18:07:42+00",17.6,21.6,,46.6,-25,771,53,1021.95,47.2,26.3
"2017-11-08 18:12:42+00",18.8,20.8,,46.4,3,827,36,1021.91,47,20.3
"2017-11-08 18:17:42+00",18.5,20.5,,46.7,-38,824,39,1021.86,47.2,29.1
"2017-11-08 18:22:42+00",17.6,21.6,,46.8,56,777,43,1021.77,47.3,56
"2017-11-08 18:27:42+00",17.4,19.4,,46.9,5,769,31,1021.71,47.5,48.5
"2017-11-08 18:32:42+00",17.0,21.0,,46.9,47,745,20,1021.74,47.5,69.3
"2017-11-08 18:37:42+00",18.9,20.9,,47,68,828,10,1021.69,47.7,86.6
"2017-11-08 18:42:42+00",19.2,21.2,,46.9,46,837,12,1021.73,47.7,92.2
"2017-11-08 18:47:42+00",15.2,17.2,,46.9,13,673,32,1021.69,47.8,134.2
"2017-11-08 18:52:42+00",15.4,17.4,,47,75,658,27,1021.67,48.1,140.1
"2017-11-08 18:57:42+00",16.7,19.7,,47,23,737,39,1021.58,48.3,181
"2017-11-08 19:02:42+00",19.4,22.4,,46.9,38,846,10,1021.49,48.1,164.7
"2017-11-08 19:07:42+00",18.4,20.4,,46.8,131,790,3,1021.48,48,83.8
"2017-11-08 19:12:42+00",16.8,18.8,,46.8,89,730,6,1021.58,47.8,74.9
"2017-11-08 19:17:42+00",18.1,21.1,,46.9,178,761,1,1021.63,47.9,56
"2017-11-08 19:22:42+00",17.7,19.7,,46.9,155,751,1,1021.75,47.8,71.3
"2017-11-08 19:27:42+00",15.0,17.0,,47.2,118,643,18,1021.8,47.7,35.3
"2017-11-08 19:32:42+00",13.0,17.0,,47.2,147,520,18,1021.85,47.6,39.5
"2017-11-08 19:37:42+00",15.4,18.4,,47.2,96,667,6,1021.78,47.7,42.5
"2017-11-08 19:42:42+00",15.0,17.0,,47.2,131,629,0,1021.74,47.6,32.6
"2017-11-08 19:47:42+00",15.4,19.4,,47.3,201,607,15,1021.96,47.7,41.8
"2017-11-08 19:52:42+00",12.7,15.7,,47.4,112,530,22,1021.95,47.7,43.2
"2017-11-08 19:57:42+00",14.4,16.4,,47.3,121,597,3,1021.91,47.7,37.6
"2017-11-08 20:02:42+00",13.4,15.4,,47.3,70,580,28,1022.01,47.6,37.8
"2017-11-08 20:07:42+00",15.1,17.1,,47.2,120,643,3,1022.04,47.5,35.4
"2017-11-08 20:12:42+00",15.7,18.7,,47.2,129,665,-11,1022.03,47.5,24.9
"2017-11-08 20:17:42+00",10.5,13.5,,47.3,165,412,49,1022.18,47.6,23.5
"2017-11-08 20:22:42+00",16.5,19.5,,47.3,265,638,5,1022.12,47.5,13.4
"2017-11-08 20:27:42+00",13.9,16.9,,47.2,168,559,-3,1022.12,47.4,14
"2017-11-08 20:32:42+00",16.2,18.2,,47.1,140,691,-8,1022.31,47.3,5.2
"2017-11-08 20:37:42+00",15.8,18.8,,46.9,132,670,7,1022.33,47.1,4.5
"2017-11-08 20:42:42+00",14.1,17.1,,47,125,593,10,1022.3,47.1,3
"2017-11-08 20:47:42+00",15.5,18.5,,46.9,186,634,0,1022.37,47,0.4
"2017-11-08 20:52:42+00",13.7,16.7,,46.8,264,523,15,1022.55,46.9,0.7
"2017-11-08 20:57:42+00",15.5,18.5,,46.7,139,658,0,1022.6,46.8,0
"2017-11-08 21:02:42+00",15.1,17.1,,46.6,179,608,-8,1022.67,46.6,0.4
"2017-11-08 21:07:42+00",12.2,14.2,,46.5,100,505,15,1022.69,46.4,0
"2017-11-08 21:12:42+00",14.5,17.5,,46.2,135,610,7,1022.6,46.1,0
"2017-11-08 21:17:42+00",15.2,18.2,,46.1,149,630,12,1022.63,46,0
"2017-11-08 21:22:42+00",13.8,18.8,,46.1,139,577,4,1022.57,45.9,0
"2017-11-08 21:27:42+00",17.8,18.8,,46,151,763,5,1022.56,45.8,0
"2017-11-08 21:32:42+00",13.7,16.7,,46,62,594,20,1022.54,45.8,0
"2017-11-08 21:37:42+00",12.8,17.8,,45.9,66,545,18,1022.59,45.7,0
"2017-11-08 21:42:42+00",15.8,17.8,,45.8,145,667,6,1022.57,45.6,0
"2017-11-08 21:47:42+00",15.1,17.1,,45.8,130,637,-1,1022.59,45.5,0
"2017-11-08 21:52:42+00",14.5,17.5,,45.8,122,614,-5,1022.8,45.4,0
"2017-11-08 21:57:42+00",13.2,15.2,,45.8,149,540,0,1022.77,45.5,0
"2017-11-08 22:02:42+00",11.6,14.6,,45.8,166,463,15,1022.78,45.5,0
"2017-11-08 22:07:42+00",11.7,13.7,,45.8,120,477,6,1022.81,45.5,0
"2017-11-08 22:12:42+00",14.9,16.9,,45.7,150,614,-2,1022.8,45.4,0
"2017-11-08 22:17:42+00",13.4,15.4,,45.7,134,560,4,1022.8,45.4,0
"2017-11-08 22:22:42+00",8.5,10.5,,45.7,98,338,16,1022.69,45.4,0
"2017-11-08 22:27:42+00",12.5,15.5,,45.7,241,473,9,1022.78,45.4,0
"2017-11-08 22:32:42+00",11.3,14.3,,45.7,126,465,9,1022.74,45.4,0
"2017-11-08 22:37:42+00",11.9,14.9,,45.8,133,485,4,1022.81,45.4,0
"2017-11-08 22:42:42+00",12.7,14.7,,45.6,89,535,-1,1022.73,45.3,0
"2017-11-08 22:47:42+00",14.1,15.1,,45.6,112,596,-2,1022.89,45.1,0
"2017-11-08 22:52:42+00",12.2,14.2,,45.6,121,508,8,1022.87,45.1,0
"2017-11-08 22:57:42+00",13.8,15.8,,45.6,96,588,20,1022.88,45.1,0
"2017-11-08 23:02:42+00",13.0,15.0,,45.5,61,556,5,1023.02,45.1,0
"2017-11-08 23:07:42+00",11.7,13.7,,45.5,61,500,-6,1022.97,45.1,0
"2017-11-08 23:12:42+00",10.7,12.7,,45.5,69,455,16,1023.16,45.1,0
"2017-11-08 23:17:42+00",10.7,11.7,,45.5,59,460,19,1023.07,45.1,0
"2017-11-08 23:22:42+00",13.4,15.4,,45.5,123,559,5,1023.03,45.2,0
"2017-11-08 23:27:42+00",12.5,14.5,,45.5,54,545,8,1023.17,45.1,0
"2017-11-08 23:32:42+00",10.7,14.7,,45.5,48,473,20,1023.35,45.2,0
"2017-11-08 23:37:42+00",13.4,14.4,,45.6,79,581,7,1023.32,45.2,0
"2017-11-08 23:42:42+00",15.2,17.2,,45.6,86,657,4,1023.29,45.2,0
"2017-11-08 23:47:42+00",14.9,16.9,,45.6,123,637,3,1023.29,45.2,0
"2017-11-08 23:52:42+00",13.3,16.3,,45.6,103,566,11,1023.32,45.2,0
"2017-11-08 23:57:42+00",12.4,14.4,,45.7,114,513,20,1023.09,45.2,0
